Content
SEND FEEDBACK

Spain Flag

BARCELONA, SPAIN


Home > Europe > Spain
Elevation: 6 meters     Latitude: 41 17N     Longitude: 002 04E

WEATHER
 
SELECT A DAY
Number of Records: 333,420;   Date Range: 7/1/96 - 3/22/16
 
SHARE

PRINT THIS DATA

[ ← Previous Day ]
WEATHER ALMANAC - 13 FEBRUARY, 2013
[ Next Day → ]
[ °F ]   °C
Weather ElementAverageHighLow
Temperature9.7 °C14 °C (3:00 pm)6 °C (9:00 am)
Dewpoint3.3 °C6 °C (6:00 pm)1 °C (9:00 am)
Humidity64 %81 % (11:00 pm)31 % (1:00 pm)
Barometer1015.6 hPa1019 hPa (9:30 pm)1013.2 hPa (12:30 am)
Wind Speed15 km/h24.1 km/h (1:30 am)
Wind Gust35.2 km/h (8:30 am)
Weather ElementAverage
Visibility12.1 km
Wind DirectionWSW (259.4 °)

Weather ElementTotal
Precipitation---
Heating Degree Days8.3 (Base 18.3)
Averaged from 50 records on 13 February, 2013
WEATHER CONDITIONS BREAKOUT
WIND DIRECTION BREAKOUT
WEATHER BY HOUR - 13 FEBRUARY, 2013
[ °F ]   °C
Local TimeTemperatureDewpointHumidityBarometerVisibilityWind DirectionWind SpeedGust SpeedPrecipitationEventsConditions
12:30 AM9 °C3 °C66 %1013.2 hPa10 kmNorth (360°)13 km/hPartly Cloudy
1:00 AM7.8 °C1.7 °C55 %1013.2 hPa30.6 kmNNW (340°)18.5 km/hScattered Clouds
1:00 AM8 °C2 °C66 %1013.2 hPa10 kmNW (320°)16.7 km/hPartly Cloudy
1:30 AM8 °C2 °C66 %1013.2 hPa10 kmNW (320°)24.1 km/hPartly Cloudy
2:00 AM8 °C2 °C66 %1013.2 hPa10 kmNNW (330°)18.5 km/hPartly Cloudy
2:30 AM8 °C2 °C66 %1013.2 hPa10 kmNW (320°)22.2 km/hPartly Cloudy
3:00 AM8 °C2 °C66 %1013.2 hPa10 kmNNW (330°)22.2 km/hPartly Cloudy
3:30 AM7 °C2 °C71 %1013.2 hPa10 kmNNW (340°)20.4 km/hPartly Cloudy
4:00 AM7 °C2 °C71 %1013.2 hPa10 kmNW (320°)22.2 km/hPartly Cloudy
4:30 AM7 °C2 °C71 %1013.2 hPa10 kmNW (320°)22.2 km/hPartly Cloudy
5:00 AM7 °C2 °C71 %1013.2 hPa10 kmNW (320°)24.1 km/hScattered Clouds
5:30 AM7 °C2 °C71 %1014.2 hPa10 kmNNW (330°)20.4 km/hMostly Cloudy
6:00 AM7 °C2 °C71 %1014.2 hPa10 kmNNW (340°)20.4 km/hMostly Cloudy
6:30 AM7 °C2 °C71 %1014.2 hPa10 kmNNW (330°)16.7 km/hMostly Cloudy
7:00 AM6.1 °C1.1 °C60 %1014.9 hPa25.7 kmNorth (350°)22.2 km/hMostly Cloudy
7:00 AM7 °C2 °C71 %1014.2 hPa10 kmNW (320°)14.8 km/hMostly Cloudy
7:30 AM7 °C2 °C71 %1015.2 hPa10 kmNNW (330°)13 km/hMostly Cloudy
8:00 AM7 °C2 °C71 %1015.2 hPa10 kmNNW (330°)13 km/hMostly Cloudy
8:30 AM7 °C2 °C71 %1015.2 hPa10 kmNW (320°)16.7 km/h35.2 km/hMostly Cloudy
9:00 AM6 °C1 °C70 %1016.3 hPa10 kmNW (320°)18.5 km/hScattered Clouds
9:30 AM7 °C1 °C66 %1016.3 hPa10 kmNW (320°)14.8 km/hPartly Cloudy
10:00 AM8 °C2 °C66 %1016.3 hPa10 kmNNW (340°)18.5 km/hPartly Cloudy
10:30 AM9 °C2 °C62 %1016.3 hPa10 kmNNW (330°)13 km/hPartly Cloudy
11:00 AM11 °C2 °C54 %1016.3 hPa10 kmWNW (300°)7.4 km/hPartly Cloudy
11:30 AM12 °C4 °C58 %1016.3 hPaWest (280°)5.6 km/hClear
12:30 PM12 °C3 °C54 %1016.3 hPaSSW (200°)11.1 km/hClear
1:00 PM13.3 °C1.1 °C31 %1016.3 hPa30.6 kmSW (220°)18.5 km/hScattered Clouds
1:00 PM13 °C3 °C51 %1016.3 hPa10 kmSW (220°)14.8 km/hPartly Cloudy
1:30 PM13 °C3 °C51 %1016.3 hPa10 kmSSW (210°)16.7 km/hPartly Cloudy
2:00 PM13 °C3 °C51 %1015.2 hPa10 kmSW (220°)24.1 km/hPartly Cloudy
2:30 PM13 °C4 °C54 %1015.2 hPa10 kmSW (220°)22.2 km/hPartly Cloudy
3:00 PM14 °C5 °C55 %1015.2 hPa10 kmSSW (210°)22.2 km/hPartly Cloudy
3:30 PM13 °C5 °C58 %1015.2 hPa10 kmSSW (200°)20.4 km/hPartly Cloudy
4:00 PM13 °C5 °C58 %1015.2 hPaSouth (190°)22.2 km/hClear
4:30 PM13 °C5 °C58 %1016.3 hPaSouth (170°)16.7 km/hClear
5:00 PM13 °C5 °C58 %1016.3 hPaSSE (160°)14.8 km/hClear
5:30 PM13 °C5 °C58 %1016.3 hPaSSE (150°)11.1 km/hClear
6:00 PM13 °C6 °C63 %1017.3 hPaSSE (160°)7.4 km/hClear
6:30 PM13 °C5 °C58 %1017.3 hPaSE (140°)5.6 km/hClear
7:00 PM12.2 °C4.4 °C48 %1017.9 hPa30.6 kmSE (140°)7.4 km/h
7:00 PM12 °C5 °C62 %1017.3 hPaVariable3.7 km/hClear
7:30 PM12 °C6 °C67 %1017.9 hPaEast (100°)7.4 km/hClear
8:00 PM12 °C6 °C67 %1017.9 hPaEast (100°)3.7 km/hClear
8:30 PM11 °C6 °C71 %1017.9 hPaEast (90°)5.6 km/hClear
9:00 PM10 °C5 °C71 %1017.9 hPa10 kmENE (60°)5.6 km/hPartly Cloudy
9:30 PM9 °C5 °C76 %1019 hPa10 kmNW (320°)5.6 km/hPartly Cloudy
10:00 PM9 °C5 °C76 %1019 hPa10 kmNNW (330°)9.3 km/hPartly Cloudy
10:30 PM8 °C4 °C76 %1019 hPa10 kmNNW (340°)11.1 km/hPartly Cloudy
11:00 PM8 °C5 °C81 %1019 hPa10 kmNNW (330°)9.3 km/hPartly Cloudy
11:30 PM8 °C5 °C81 %1019 hPa10 kmNNW (330°)13 km/hPartly Cloudy
Hourly data recorded from LEBL, located 0 kilometers away from Barcelona, Spain




STORIES FROM OUR PARTNERS